Content
SEND FEEDBACK

Daily
Averages
Monthly
Summary
United States of America

MILAN, MICHIGAN


Home > North America > United States > Michigan
Elevation: 660 feet     Latitude: 42 05N     Longitude: 083 35W

WEATHER
 
SELECT A DAY
Number of Records: 205,690;   Date Range: 1/1/95 - 10/20/14
 
SHARE

PRINT THIS DATA

[ ← Previous Day ]
WEATHER ALMANAC - JULY 6, 2013
[ Next Day → ]
[ °C ]   °F
Weather ElementAverageHighLow
Temperature76.6 °F86 °F (2:53 pm)70 °F (6:53 am)
Dewpoint68.3 °F70 °F (4:53 pm)64.9 °F (6:53 am)
Humidity76.2 %88 % (9:06 pm)56 % (12:53 pm)
Barometer30.06 in30.12 in (9:53 am)30.00 in (7:53 pm)
Wind Speed5.1 mph12.7 mph (4:53 pm)
Wind Gust25.3 mph (4:53 pm)
Weather ElementAverage
Visibility10 mi
Wind DirectionSSE (143.1 °)

Weather ElementTotal
Precipitation0.25 in
Cooling Degree Days13 (Base 65)
Growing Degree Days28 (Base 50)
Averaged from 26 records on July 6, 2013
WEATHER CONDITIONS BREAKOUT
WIND DIRECTION BREAKOUT
WEATHER BY HOUR - JULY 6, 2013
[ °C ]   °F
Local TimeTemperatureDewpointHumidityBarometerVisibilityWind DirectionWind SpeedGust SpeedPrecipitationEventsConditions
1:53 AM73.0 °F68.0 °F84 %30.10 in10.0 miCalmClear
2:53 AM72.0 °F66.9 °F84 %30.10 in10.0 miSouth (180°)3.5 mphClear
3:53 AM73.0 °F68.0 °F84 %30.09 in10.0 miSouth (190°)5.8 mphClear
4:53 AM73.0 °F66.9 °F81 %30.09 in10.0 miSW (220°)5.8 mphClear
5:53 AM72.0 °F66.0 °F81 %30.09 in10.0 miCalmClear
6:53 AM70.0 °F64.9 °F84 %30.11 in10.0 miSouth (170°)4.6 mphClear
7:53 AM73.0 °F68.0 °F84 %30.11 in10.0 miSouth (180°)3.5 mphClear
8:53 AM77.0 °F68.0 °F74 %30.11 in10.0 miWest (270°)3.5 mphPartly Cloudy
9:53 AM78.1 °F68.0 °F71 %30.12 in10.0 miCalmClear
10:53 AM82.0 °F68.0 °F62 %30.10 in10.0 miVariable3.5 mphClear
11:53 AM82.9 °F66.9 °F58 %30.10 in10.0 miSouth (170°)6.9 mphPartly Cloudy
12:53 PM84.0 °F66.9 °F56 %30.09 in10.0 miSSE (150°)9.2 mphScattered Clouds
1:53 PM82.9 °F68.0 °F60 %30.07 in10.0 miESE (120°)6.9 mphMostly Cloudy
2:53 PM86.0 °F69.1 °F57 %30.04 in10.0 miSSE (150°)6.9 mphScattered Clouds
3:53 PM84.9 °F68.0 °F57 %30.04 in10.0 miSouth (180°)8.1 mphMostly Cloudy
4:53 PM79.0 °F70.0 °F74 %30.04 in10.0 miSSE (150°)12.7 mph25.3 mph0.00 inRainLight Rain
5:53 PM79.0 °F70.0 °F74 %30.02 in10.0 miSSE (150°)4.6 mph0.02 inRainLight Rain
6:53 PM78.1 °F68.0 °F71 %30.02 in10.0 miSouth (170°)6.9 mph0.01 inRainLight Rain
7:53 PM75.0 °F69.1 °F82 %30.00 in9.0 miSouth (190°)4.6 mph0.13 inRainRain
8:53 PM75.0 °F70.0 °F84 %30.00 in10.0 miESE (120°)6.9 mph0.08 inRainLight Rain
9:06 PM73.4 °F69.8 °F88 %30.02 in10.0 miSSE (160°)3.5 mph0.00 inRainLight Rain
9:53 PM73.9 °F69.1 °F85 %30.01 in10.0 miCalm0.00 inRainLight Rain
10:53 PM73.9 °F69.1 °F85 %30.03 in10.0 miSSW (210°)8.1 mph0.01 inRainLight Rain
11:05 PM73.4 °F69.8 °F88 %30.05 in10.0 miSSW (210°)5.8 mph0.00 inRainLight Rain
11:10 PM73.4 °F69.8 °F88 %30.05 in10.0 miSouth (180°)4.6 mph0.00 inRainLight Rain
11:53 PM73.9 °F69.1 °F85 %30.04 in10.0 miSSW (200°)5.8 mph0.00 inOvercast
Hourly data recorded from KYIP, located miles away from Milan, Michigan







STORIES FROM OUR PARTNERS